Location: Artiguedieu
(43.5000°N, 0.5454°E)
Time: 08:35:53
(UTC+00:00)

Vanguard 1 Rocket - Pass Details

Date: 04 August 2021
Orbit: 650 x 4226 km, 34.3° (Epoch: 24 September)

Event Time Altitude Azimuth Distance (km) Brightness Sun altitude
Rises 12:58:23 0° 270° (W) 7,112 12.1 61.2°
Reaches altitude 10° 13:04:07 10° 266° (W) 5,514 11.8 60.7°
Maximum altitude 13:17:22 45° 201° (SSW) 2,143 11.2 59.3°
Drops below altitude 10° 13:24:28 10° 130° (SE) 3,009 10.2 58.6°
Sets 13:26:41 0° 123° (ESE) 3,701 10.5 58.3°
